Home   Weather   Fushun   Past weeks

Flag for China Past Weather in Fushun, Liaoning, China — Yesterday and Last 2 Weeks

Now
7 °F

Passing clouds.


Feels Like: 0 °F
Forecast: 3 / 20 °F
Wind: 3 mph from West

Location: Shenyang / Taoxian

Current Time: Dec 19, 2017 at 4:40:41 am

Latest Report: Dec 19, 2017 at 4:00 am


Visibility: N/A

Pressure: 30.54 "Hg

Humidity: 39%

Dew Point: -13 °F

Location of FushunLocation

Past Weather in Fushun — Graph

°F

Fushun Temperature Yesterday

Maximum temperature yesterday: 30 °F (at 12:30 pm)
Minimum temperature yesterday: 14 °F (at 5:30 am)
Average temperature yesterday: 22 °F

High & Low Weather Summary for the Past Weeks

 TemperatureHumidityPressure
High43 °F (Dec 9, 2:00 pm)86% (Dec 7, 1:30 am)30.66 "Hg (Dec 7, 1:30 am)
Low-6 °F (Dec 13, 12:30 am)22% (Dec 5, 1:30 pm)29.83 "Hg (Dec 9, 2:00 pm)
Average14 °F49%30.30 "Hg
* Reported Dec 4 3:00 am — Dec 19 3:30 am, Fushun. Weather by CustomWeather, © 2017

Note: Actual official high and low records may vary slightly from our data, if they occured in-between our weather recording intervals... More about our weather records

Advertising

Fushun Weather History for the Previous 24 Hours

Scroll right to see more
 ConditionsComfort  
Time TempWeatherWind HumidityBarometerVisibility
3:30 am
Tue, Dec 19
10 °FClear.3 mph33%30.54 "Hg10 mi
3:00 am10 °FClear.3 mph33%30.54 "Hg10 mi
2:30 am10 °FPassing clouds.8 mph36%30.54 "HgN/A
2:00 am12 °FPassing clouds.15 mph34%30.54 "HgN/A
1:30 am12 °FPassing clouds.17 mph34%30.54 "HgN/A
1:00 am14 °FClear.17 mph31%30.51 "Hg10 mi
12:30 am14 °FClear.17 mph34%30.51 "Hg10 mi
12:00 am16 °FClear.15 mph37%30.51 "Hg10 mi
11:30 pm
Mon, Dec 18
16 °FClear.17 mph41%30.48 "Hg10 mi
11:00 pm18 °FClear.17 mph41%30.48 "Hg10 mi
10:30 pm18 °FClear.17 mph38%30.45 "Hg10 mi
10:00 pm19 °FClear.13 mph32%30.42 "Hg10 mi
9:30 pm21 °FClear.13 mph32%30.42 "Hg10 mi
9:00 pm21 °FLight snow. Clear.15 mph35%30.39 "HgN/A
8:30 pm23 °FLight snow. Clear.13 mph50%30.36 "HgN/A
8:00 pm23 °FLight snow. Clear.10 mph63%30.36 "HgN/A
7:30 pm25 °FLight snow. Overcast.10 mph59%30.33 "HgN/A
7:00 pm23 °FLight snow. Overcast.8 mph68%30.33 "Hg5 mi
6:30 pm23 °FLight snow. Passing clouds.10 mph68%30.33 "HgN/A
6:00 pm25 °FClear.6 mph42%30.30 "Hg10 mi
5:30 pm23 °FClear.3 mph42%30.27 "Hg10 mi
5:00 pm25 °FPassing clouds.3 mph42%30.27 "HgN/A
4:30 pm27 °FPassing clouds.10 mph43%30.27 "HgN/A
3:30 pm28 °FSunny.10 mph34%30.27 "Hg10 mi
3:00 pm28 °FPassing clouds.8 mph34%30.27 "HgN/A
2:30 pm28 °FPassing clouds.10 mph34%30.27 "HgN/A
2:00 pm28 °FSunny.10 mph34%30.24 "Hg10 mi
1:30 pm28 °FPassing clouds.8 mph34%30.24 "HgN/A
1:00 pm30 °FPassing clouds.6 mph34%30.24 "HgN/A
12:30 pm30 °FSunny.8 mph34%30.24 "Hg10 mi
12:00 pm28 °FPassing clouds.8 mph37%30.24 "HgN/A
11:30 am28 °FPassing clouds.10 mph37%30.27 "HgN/A
11:00 am28 °FPassing clouds.8 mph37%30.27 "HgN/A
10:30 am28 °FPassing clouds.6 mph37%30.27 "HgN/A
10:00 am27 °FPassing clouds.6 mph43%30.27 "HgN/A
9:30 am25 °FPassing clouds.3 mph46%30.27 "HgN/A
9:00 am25 °FSunny.6 mph46%30.27 "Hg10 mi
8:30 am23 °FSunny.6 mph50%30.27 "Hg10 mi
8:00 am14 °FSunny.3 mph67%30.24 "Hg10 mi
7:30 am14 °FSunny.1 mph67%30.24 "Hg10 mi
7:00 am18 °FClear.1 mph62%30.24 "Hg10 mi
6:30 am16 °FClear.1 mph62%30.21 "Hg10 mi
6:00 am16 °FClear.1 mph62%30.21 "Hg10 mi
5:30 am14 °FClear.1 mph67%30.18 "Hg10 mi
5:00 am16 °FClear.No wind57%30.18 "Hg10 mi
4:30 am18 °FClear.1 mph58%30.18 "Hg10 mi
4:00 am16 °FClear.1 mph57%30.18 "Hg10 mi
Weather by CustomWeather, © 2017

See weather overview